User: anonymous   Login
Location: Hobi?a Gr?di?te
(45.4833°N, 22.7833°E)
Time: 14:19:51
(UTC+00:00)
Language:

Cosmos 1455 Rocket - Orbit

View from above orbital plane
View from above orbital plane
View from above satellite
View from above satellite

Ground track
Ground track

The orbit data is extracted from the following two-line orbital elements,

1 14033U 83037B   23149.85410190  .00000487  00000-0  54947-4 0  9991
2 14033  82.5060 106.9320 0018454 143.3882 216.8598 14.84368993780702
Epoch (UTC): 29 May 2023 20:29:54
Eccentricity: 0.0018454
inclination: 82.5060°
perigee height: 602 km
apogee height: 628 km
right ascension of ascending node: 106.9320°
argument of perigee: 143.3882°
revolutions per day: 14.84368993
mean anomaly at epoch: 216.8598°
orbit number at epoch: 78070

The dashed part of the orbit path shows where the satellite is in the earth's shadow,  

DLR